Home > Time Zones > World Clock > Weather > Iran > Gorgan > Past weeks

Flag for Iran Weather past 2 weeks in Gorgan, Iran

Now
59 °F

Light rain. Mostly cloudy.


Feels Like: 56 °F
Forecast: 52 / 64 °F
Wind: 18 mph from North

Location: Gorgan Airport

Current Time: Oct 26, 2014 at 2:48:37 AM

Latest Report: Oct 26, 2014 at 1:30 AM


Visibility: 4 mi

Pressure: 30.18 "Hg

Humidity: 88%

Dew point: 55 °F

Location of GorganLocation

Historic Weather in Gorgan — Graph

°F

Gorgan temperature yesterday

Maximum temperature yesterday: 73 °F (at 12:30 PM)
Minimum temperature yesterday: 64 °F (at 1:30 AM)
Average temperature yesterday: 68 °F

Past Weeks' High & Low Weather Summary

 TemperatureHumidityPressure
High90 °F (Oct 23, 2:30 PM)100% (Oct 11, 9:30 AM)30.39 "Hg (Oct 11, 9:30 AM)
Low46 °F (Oct 13, 6:30 AM)16% (Oct 23, 2:30 PM)29.65 "Hg (Oct 19, 3:30 AM)
Average65 °F73%30.02 "Hg
* Reported Oct 11 1:30 AM — Oct 26 1:30 AM, Gorgan, Weather by CustomWeather, © 2014

Note: Actual official high and low records may vary slightly from our data, if they occured in-between our weather recording intervals... More about our weather records

Advertising

Gorgan weather history for previous 24 hours

 ConditionsComfort  
Time TempWeatherWind HumidityBarometerVisibility
1:30 AM
Oct 26
59 °FLight rain. Mostly cloudy.18 mph88%30.18 "Hg4 mi
12:30 AM63 °FSprinkles. Mostly cloudy.12 mph94%30.15 "Hg5 mi
11:30 PM
Oct 25
64 °FMostly cloudy.9 mph88%30.12 "HgN/A
10:30 PM66 °FMostly cloudy.16 mph78%30.12 "HgN/A
9:30 PM64 °FMostly cloudy.12 mph83%30.09 "HgN/A
8:30 PM64 °FMostly cloudy.12 mph88%30.09 "HgN/A
7:30 PM66 °FMostly cloudy.16 mph83%30.07 "HgN/A
6:30 PM66 °FMostly cloudy.21 mph78%30.07 "HgN/A
5:30 PM68 °FMore clouds than sun.12 mph69%30.04 "HgN/A
4:30 PM70 °FMore clouds than sun.12 mph64%30.01 "HgN/A
3:30 PM70 °FMore clouds than sun.12 mph64%29.98 "HgN/A
2:30 PM72 °FBroken clouds.7 mph65%29.98 "HgN/A
1:30 PM73 °FScattered clouds.14 mph61%29.95 "HgN/A
12:30 PM73 °FScattered clouds.12 mph61%29.98 "HgN/A
11:30 AM72 °FScattered clouds.7 mph65%30.01 "HgN/A
11:00 AM72 °FScattered clouds.5 mph65%30.01 "HgN/A
10:30 AM72 °FScattered clouds.5 mph65%30.04 "HgN/A
9:30 AM70 °FScattered clouds.7 mph69%30.04 "HgN/A
8:30 AM68 °FPartly sunny.9 mph73%30.07 "HgN/A
7:30 AM66 °FScattered clouds.5 mph73%30.07 "HgN/A
6:30 AM64 °FPassing clouds.5 mph83%30.04 "HgN/A
5:30 AM66 °FPassing clouds.5 mph73%30.07 "HgN/A
4:30 AM66 °FPassing clouds.7 mph73%30.07 "HgN/A
3:30 AM64 °FPassing clouds.7 mph83%30.07 "HgN/A
2:30 AM66 °FPassing clouds.12 mph78%30.07 "HgN/A
Weather by CustomWeather, © 2014

See weather overviewHow to use our weather pages